Regional Weather Roundup
Issued by NWS

Home | Current Version | Previous Version | Graphics & Text | Print | Product List | Glossary On
Versions: 1 2 3 4 5 6 7 8 9 10 11 12 13 14 15 16 17 18 19 20 21 22 23 24 25 26 27
000
ASUS45 KSLC 170510
RWRUT

UTAH REGIONAL WEATHER ROUNDUP
NATIONAL WEATHER SERVICE SALT LAKE CITY UT
1100 PM MDT WED APR 16 2014

UTZ001>011-023>025-170600-

NORTHERN UTAH

CITY           SKY/WX    TMP DP  RH WIND       PRES   REMARKS
HILL AFB       CLEAR     44  13  27 E7        30.03R
LOGAN          CLEAR     44  21  40 CALM      30.02R
OGDEN          CLEAR     44  18  35 S8        30.02R
PROVO AIRPORT  CLEAR     46  23  39 N5        30.03S
SALT LAKE CITY PTCLDY    46  15  28 SE6       30.02S
VERNAL         PTCLDY    41  22  46 MISG      29.99R
WENDOVER       PTCLDY    50  18  27 NW3       30.00S
HEBER CITY     CLEAR     32  19  59 E7        30.05R WCI  26
WEST JORDAN    CLEAR     39  19  45 W6        30.03S WCI  35

$$

UTZ012>022-026-027-170600-

SOUTHERN UTAH

CITY           SKY/WX    TMP DP  RH WIND       PRES   REMARKS
BRYCE CANYON   CLEAR     24  16  71 CALM      30.08R
CEDAR CITY     CLEAR     41  21  44 CALM      30.00R
MILFORD        CLEAR     41  18  39 N9        30.00R
MOAB/CYNLANDS  CLEAR     49  19  30 CALM      29.94R
PRICE          CLEAR     47  15  27 N10       30.01R
ST GEORGE      CLEAR     70  25  18 NE17G23   29.87R
KANAB            N/A     52  25  35 N12       30.00R

$$

REGIONAL REPORTS     COLORADO/ARIZONA

CITY           SKY/WX    TMP DP  RH WIND       PRES   REMARKS
CRAIG, CO      PTCLDY    28  21  75 CALM      30.01R
GRAND JUNCTION CLEAR     43  21  41 E6        29.96R
RIFLE          CLEAR     37  23  56 SE5       29.99R WCI  33
MONTROSE       CLEAR     40  26  57 SE9       30.02R WCI  34
CORTEZ         CLEAR     36  23  59 NE3       30.00R
PAGE, AZ       NOT AVBL
GRAND CANYON   CLEAR     36  16  44 NE6       30.05R WCI  31
KINGMAN        CLEAR     61  13  15 SE7       29.87R
FLAGSTAFF      CLEAR     41  14  33 CALM      30.06R

$$

REGIONAL REPORTS    NEVADA/IDAHO/WYOMING

CITY           SKY/WX    TMP DP  RH WIND       PRES   REMARKS
LAS VEGAS, NV  PTCLDY    76  19  11 CALM      29.73R
ELY            PTCLDY    42  24  49 CALM      30.04R
ELKO           MOCLDY    48  27  44 CALM      30.00S
POCATELLO, ID  CLEAR     41  14  33 S8        30.00F
BURLEY         CLEAR     39  21  48 S8        30.00R WCI  33
EVANSTON, WY   CLEAR     33  12  41 SW5       30.06R WCI  29
ROCK SPRINGS   MOCLDY    35  10  35 N9        30.04R WCI  28

$$



USA.gov is the U.S. government's official web portal to all federal, state and local government web resources and services.